Find Starlink 1788

NORAD ID: 46689 Int'l Des: 2020-073 Owner: SPXS Country: US Constellation: starlink operational
LEOCIRCULAR

当前视图

正在加载3D地球...

About Starlink 1788

Starlink 1788 (NORAD 46689) is a starlink constellation satellite (v1.0) launched Oct 18, 2020 by SPXS of US. It operates in LEO, CIRCULAR orbit with a mass of 260.00 kg.

关于 Starlink 1788

正在加载描述...

即将过境

Passes for default location (London). Set your location on the main map for personalized predictions.

高度历史

Loading altitude history...

两行轨道根数

1 46689U 20073V 26169.00003472 .00237579 00000-0 79555-3 0 9992
2 46689 53.0306 79.5800 0002750 108.7104 89.8101 15.88989252 6028
Epoch: Jun 18, 2026 • Age: 11 hours

当前状态

高度 311.2 km
速度 7.72 km/s
星下点 -22.64°S, 150.29°W
发射日期 Oct 18, 2020
运行时间 5.6 years
类型 internet

技术详情

分类 Payload
质量 260.00 kg
干质量 248.00 kg
总质量 260.00 kg
长度 0.20 m
直径 2.80 m
跨度 9.00 m
形状 Box + pan
制造商 SPXS
平台类型 Starlink
阶段状态 In Orbit
所有者/国家 SPXS/US

Most Searched